Location: Ferchesar
(52.6477°N, 12.4298°E)
Time: 13:22:50
(UTC+01:00)

Altair - Pass Details

Date: 14 December 2021
Orbit: 1501 x 1683 km, 47.2° (Epoch: 27 January)

Event Time Altitude Azimuth Distance (km) Brightness Sun altitude
Rises 16:16:30 0° 267° (W) 4,794 11.2 -3.4°
Reaches altitude 10° 16:19:40 10° 265° (W) 3,784 10.7 -3.8°
Maximum altitude 16:29:01 63° 187° (S) 1,692 8.0 -5.0°
Drops below altitude 10° 16:38:04 10° 110° (ESE) 3,666 9.1 -6.1°
Sets 16:41:05 0° 107° (ESE) 4,638 9.6 -6.5°
